THOR ABLESTAR DEB, 48824

Orbit data source: Space-Track

THOR ABLESTAR DEB, 48824 is space debris in LEO originally from a launch on Thu, 29 Jun 1961 UTC launched from the Air Force Eastern Test Range (AFETR). Debris objects in space refer to the collection of defunct objects orbiting the Earth. Examples of debris include non-operational satellites, rocket bodies, and fragments generated from explosions, collisions, or faulty payload assembly.

Loading next visibility...
Identifier
48824, 1961-015NC
Orbit
LEO
Country
Flag of USUS
Related business
Manufacturer
Unknown
Mission
Spacecraft
Bus & Motor
Unknown
Mass
Unknown
Launch date (UTC)
1961-06-29 (65 years ago)
Launch vehicle
Unknown
Launch site
Air Force Eastern Test Range (AFETR)
Object type
Payload
Rocket body
Debris
Shape & HBR
Unknown shape, 0.1 m
Radar Cross Section
Small (<0.1 m²)

Expand to show TLE details & history
Last TLE update: 1 day ago

TLE from 1 day ago
0 THOR ABLESTAR DEB
1 48824U 61015NC  26127.45256550  .00000099  00000-0  10977-3 0  9994
2 48824  67.0055  40.1728 0097906 310.8428  48.4200 14.02766904637508
Epoch: 2026-05-07T10:51Z
TLE epoch observation values (Epoch: 2026-05-07T10:51:41.659Z)
Latitude
-0.00005°
Longitude
11.9507°
Altitude
839.533 km
Speed
7.457 km/s
True Right ascension
02h 40m 41s
True Declination
0° 00' 00"
Sunlit
Object was in daylight at epoch
Visualization orbit readout
Latitude
Unknown
Longitude
Unknown
Altitude
Unknown
Speed
Unknown
Apparent Right ascension
Unknown
Apparent Declination
Unknown
Sunlit
N/A
Visualization observer readout
Local Sidereal Time
01:10:05
Azimuth
Unknown
Elevation
Unknown
Doppler factor
Unknown
Orbital elements
Apogee altitude
953.677 km
Perigee altitude
811.503 km
Semi-major axis
7,260.727 km
Eccentricity
0.00979
Inclination
67.0055°
RAAN
40.1728°
Arg. of periapsis
310.8428°
True anomaly
49.26607°
Mean anomaly
48.42°
Eccentric anomaly
48.84235°
Mean motion
3.50811 °/min
Orbital period
102.62 mins
BSTAR
0.00010977
Loading maneuver chart data...
Computing Atmospheric mass density...
Loading historical data...
Loading historical data...
Loading historical data...
Loading historical data...
Loading historical data...
Loading historical data...
Loading historical data...

Documentation

Showing up to 5 results
|